Header for Extended Forecast Station List Page

Search by: ID | Name | Date | Parm | Value | Avg | % Avg
Sort by: ID | Name | Date | Parm | Value | Avg | % Avg

Enter search or view all records.

Click on id for station plot
#IDNameDateParmValueAvg% Avg
0LYDM8KOOTENAI-LIBBY DAM11-04-2019INFLOW (KAF)76983792
1LEOI1KOOTENAI-AT LEONIA11-04-2019DISCHARGE (KAF)15621419110
2BFEI1KOOTENAI-AT BONNERS FERRY11-04-2019STAGE (FT)MMM
3FCFM8NF FLATHEAD-NEAR COLUMBIA FALLS11-04-2019DISCHARGE (KAF)16218090
4WGCM8MF FLATHEAD-NEAR WEST GLACIER11-04-2019DISCHARGE (KAF)9115957
5HHWM8SF FLATHEAD-HUNGRY HORSE DAM11-04-2019INFLOW (KAF)19023980
6CFMM8FLATHEAD-AT COLUMBIA FALLS11-04-2019DISCHARGE (KAF)867115575
7DLGM8CLARK FORK-AT DEER LODGE11-04-2019DISCHARGE (KAF)7661124
8DRMM8CLARK FORK-NR DRUMMOND11-04-2019DISCHARGE (KAF)151MM
9RCCM8ROCK CREEK-NEAR CLINTON11-04-2019DISCHARGE (KAF)5847124
10BONM8BLACKFOOT-NEAR BONNER11-04-2019DISCHARGE (KAF)10613280
11ABOM8CLARK FORK-ABOVE MISSOULA11-04-2019DISCHARGE (KAF)32933698
12BITM8BITTERROOT-NEAR MISSOULA11-04-2019DISCHARGE (KAF)17322178
13BELM8CLARK FORK-BELOW MISSOULA11-04-2019DISCHARGE (KAF)50256289
14STRM8ST. REGIS-NEAR ST. REGIS11-04-2019DISCHARGE (KAF)224252
15SRGM8CLARK FORK-AT ST REGIS11-04-2019DISCHARGE (KAF)64174286
16KERM8FLATHEAD-KERR DAM11-04-2019INFLOW (KAF)981149466
17NOXM8CLARK FORK-NOXON RAPIDS DAM11-04-2019INFLOW (KAF)2452358668
18CABI1CLARK FORK-CABINET GORGE DAM11-04-2019INFLOW (KAF)2698374272
19PRTI1PRIEST-NEAR PRIEST RIVER11-04-2019DISCHARGE (KAF)12921859
20ALFW1PEND OREILLE-ALBENI FALLS DAM11-04-2019INFLOW (KAF)2875437366
21HOPI1PEND OREILLE-PEND OREILLE LAKE NR HOPE11-04-2019LAKE ELEVATION (FT)MMM
22COEI1COEUR D ALENE-COEUR D ALENE LAKE11-04-2019INFLOW (KAF)29181935
23SPOW1SPOKANE-AT SPOKANE11-04-2019DISCHARGE (KAF)351MM
24LLKW1SPOKANE-AT LONGLAKE11-04-2019INFLOW (KAF)552130542
25SATI1ST MARIES-NEAR SANTA11-04-2019DISCHARGE (KAF)204248
26SJMI1ST JOE-AT ST MARIES11-04-2019STAGE (FT)MMM
27CIBW1COLUMBIA-AT INTL BOUNDARY11-04-2019DISCHARGE (KAF)18780MM
28LAUW1KETTLE-AT LAURIER11-04-2019DISCHARGE (KAF)125123102
29GCDW1COLUMBIA-GRAND COULEE DAM11-04-2019INFLOW (KAF)1955317221114
30CHJW1COLUMBIA-CHIEF JOSEPH DAM11-04-2019INFLOW (KAF)206972203994
31TONW1OKANOGAN-NEAR TONASKET11-04-2019DISCHARGE (KAF)23228482
32PATW1METHOW-NEAR PATEROS11-04-2019DISCHARGE (KAF)10296106
33WELW1COLUMBIA-WELLS DAM11-04-2019INFLOW (KAF)210352245094
34CHDW1CHELAN-LAKE CHELAN DAM11-04-2019INFLOW (KAF)166160104
35RRHW1COLUMBIA-ROCKY REACH DAM11-04-2019INFLOW (KAF)214922298793
36ARDW1ENTIAT-NEAR ARDENVOIR11-04-2019DISCHARGE (KAF)192286
37PESW1WENATCHEE-AT PESHASTIN11-04-2019DISCHARGE (KAF)17230656
38WANW1COLUMBIA-WANAPUM DAM11-04-2019INFLOW (KAF)2166820162107
39PRWW1COLUMBIA-PRIEST RAPIDS DAM11-04-2019INFLOW (KAF)2166820490106
40KEDW1YAKIMA-KEECHELUS LAKE11-04-2019INFLOW (KAF)365268
41KADW1KACHESS-KACHESS DAM11-04-2019INFLOW (KAF)314865
42EASW1YAKIMA-AT EASTON11-04-2019DISCHARGE (KAF)467463
43CLUW1CLE ELUM-CLE ELUM LAKE11-04-2019INFLOW (KAF)7710672
44TNAW1TEANAWAY-BELOW FORKS11-04-2019DISCHARGE (KAF)224647
45UMTW1YAKIMA-AT UMTANUM11-04-2019DISCHARGE (KAF)17927066
46BUDW1BUMPING-BUMPING LAKE DAM11-04-2019INFLOW (KAF)183747
47CLFW1NACHES-NEAR CLIFFDEL11-04-2019DISCHARGE (KAF)5511249
48RILW1TIETON-RIMROCK LAKE NEAR RIMROCK11-04-2019INFLOW (KAF)416959
49NACW1NACHES-NEAR NACHES11-04-2019DISCHARGE (KAF)438948
50PARW1YAKIMA-NEAR PARKER11-04-2019DISCHARGE (KAF)32751364
51KIOW1YAKIMA-AT KIONA11-04-2019DISCHARGE (KAF)40075253
52IPDI1HENRYS FORK-ISLAND PARK DAM11-04-2019INFLOW (KAF)9711485
53CHEI1FALL RIVER-NEAR CHESTER11-04-2019DISCHARGE (KAF)10611294
54ANTI1HENRYS FORK-AT ST. ANTHONY11-04-2019DISCHARGE (KAF)348342102
55TEAI1TETON-NEAR ST. ANTHONY11-04-2019DISCHARGE (KAF)919992
56REXI1HENRYS FORK-AT REXBURG11-04-2019DISCHARGE (KAF)433429101
57JLKW4SNAKE-JACKSON LAKE AT DAM11-04-2019INFLOW (KAF)10711593
58JKSW4SNAKE-NEAR JACKSON11-04-2019DISCHARGE (KAF)28630195
59ALPW4SNAKE-NEAR ALPINE11-04-2019DISCHARGE (KAF)35337694
60PLDI1SF SNAKE-PALISADES DAM11-04-2019INFLOW (KAF)56760793
61HEII1SNAKE-NEAR HEISE11-04-2019DISCHARGE (KAF)42856676
62RIDI1WILLOW CREEK-RIRIE DAM11-04-2019INFLOW (KAF)119123
63SIFI1SNAKE-AB EAGLE ROCK NR IDAHO FALLS11-04-2019DISCHARGE (KAF)72481289
64SHYI1SNAKE-NEAR SHELLEY11-04-2019DISCHARGE (KAF)70881287
65SNAI1SNAKE-AT BLACKFOOT11-04-2019DISCHARGE (KAF)63374985
66BFTI1SNAKE-NEAR BLACKFOOT11-04-2019DISCHARGE (KAF)64579481
67PIHI1PORTNEUF-AT POCATELLO11-04-2019DISCHARGE (KAF)586688
68AFRI1SNAKE-AMERICAN FALLS RESERVOIR11-04-2019INFLOW (KAF)1265148685
69MILI1SNAKE-AT MILNER11-04-2019DISCHARGE (KAF)266204
70HOTI1BRUNEAU-NEAR HOT SPRINGS11-04-2019DISCHARGE (KAF)3030102
71SWAI1SNAKE-BELOW SWAN FALLS11-04-2019DISCHARGE (KAF)1764259668
72HWRI1BIG LOST-AT HOWELL RANCH NEAR CHILLY11-04-2019DISCHARGE (KAF)2320115
73MACI1BIG LOST-MACKAY RESERVOIR NEAR MACKAY11-04-2019INFLOW (KAF)405873
74HALI1BIG WOOD-AT HAILEY11-04-2019DISCHARGE (KAF)4438116
75MAGI1BIG WOOD-MAGIC DAM11-04-2019INFLOW (KAF)3128109
76LWRI1LITTLE WOOD-LITTLE WOOD DAM11-04-2019INFLOW (KAF)131585
77OWYO3OWYHEE-OWYHEE DAM11-04-2019INFLOW (KAF)639765
78ARAI1SF BOISE-ANDERSON RANCH DAM11-04-2019INFLOW (KAF)647783
79LUCI1BOISE-LUCKY PEAK DAM11-04-2019INFLOW (KAF)75MM
80BIGI1BOISE-AT GLENWOOD BRIDGE11-04-2019DISCHARGE (KAF)11038290
81PARI1BOISE-NEAR PARMA11-04-2019DISCHARGE (KAF)253211120
82WRMO3MALHEUR-WARM SPRINGS DAM11-04-2019INFLOW (KAF)173058
83BERO3MALHEUR-AGENCY VALLEY DAM11-04-2019INFLOW (KAF)131965
84BULO3BULLY CREEK-BULLY CREEK DAM11-04-2019INFLOW (KAF)194525
85CSDI1NF PAYETTE-CASCADE DAM11-04-2019INFLOW (KAF)569758
86DEDI1DEADWOOD-NEAR LOWMAN11-04-2019INFLOW (KAF)131968
87EMMI1PAYETTE-NEAR EMMETT11-04-2019DISCHARGE (KAF)26236771
88WSRI1WEISER-NEAR WEISER11-04-2019DISCHARGE (KAF)5810456
89WEII1SNAKE-AT WEISER11-04-2019DISCHARGE (KAF)2639373671
90BRNI1SNAKE-BROWNLEE DAM11-04-2019INFLOW (KAF)2810386673
91WHBI1SALMON-AT WHITEBIRD11-04-2019DISCHARGE (KAF)1017105996
92TRYO3GRANDE RONDE-TROY11-04-2019DISCHARGE (KAF)20935159
93ANAW1SNAKE-NEAR ANATONE11-04-2019DISCHARGE (KAF)4267594372
94ORFI1CLEARWATER-AT OROFINO11-04-2019DISCHARGE (KAF)36374749
95DWRI1NF CLEARWATER-DWORSHAK DAM11-04-2019INFLOW (KAF)25757545
96SPDI1CLEARWATER-AT SPALDING11-04-2019DISCHARGE (KAF)821178146
97LGDW1SNAKE-LOWER GRANITE DAM11-04-2019INFLOW (KAF)5088793964
98LGSW1SNAKE-LITTLE GOOSE DAM11-04-2019INFLOW (KAF)5088799464
99LMNW1SNAKE-LOWER MONUMENTAL DAM11-04-2019INFLOW (KAF)5256812065
100IHDW1SNAKE-ICE HARBOR DAM11-04-2019INFLOW (KAF)5256802865
101TCHW1WALLA WALLA-NEAR TOUCHET11-04-2019DISCHARGE (KAF)12214584
102MCDW1COLUMBIA-MCNARY DAM11-04-2019INFLOW (KAF)274253066589
103GIBO3UMATILLA-NEAR GIBBON11-04-2019DISCHARGE (KAF)4139105
104PDTO3UMATILLA-AT PENDLETON11-04-2019DISCHARGE (KAF)829784
105MYKO3MCKAY CREEK-NEAR PILOT ROCK11-04-2019DISCHARGE (KAF)2922133
106UMAO3UMATILLA-NEAR UMATILLA11-04-2019DISCHARGE (KAF)120101118
107MONO3NF JOHN DAY-AT MONUMENT11-04-2019DISCHARGE (KAF)8114257
108SERO3JOHN DAY-AT SERVICE CK11-04-2019DISCHARGE (KAF)16225264
109JDAO3COLUMBIA-JOHN DAY DAM11-04-2019INFLOW (KAF)287073188390
110MODO3DESCHUTES-AT MOODY NR BIGGS11-04-2019DISCHARGE (KAF)1373145594
111TDAO3COLUMBIA-THE DALLES DAM11-04-2019INFLOW (KAF)293703597982
112PITW1KLICKITAT-NEAR PITT11-04-2019DISCHARGE (KAF)25231779
113HODO3HOOD-NEAR TUCKER BRIDGE11-04-2019DISCHARGE (KAF)23225392
114UNDW1WHITE SALMON-NEAR UNDERWOOD11-04-2019DISCHARGE (KAF)20026276
115BONO3COLUMBIA-BONNEVILLE DAM11-04-2019INFLOW (KAF)300483835578